�_�ʐ�͌���@�Y���u�C�̈ړ��ʁi�������j,,,,,,,,,,,,
�@,Time,Time int.,,Lat.,,Long.,,Distance,,Direction,Speed,
Date(yyyy/mm/dd),(hh:mm),(hour),(min),(deg),(min),(deg),(min),(miles),(meter),(deg),(m/s),(knots)
2005/9/1,9:40,0,,36,45.972 ,137,13.290 ,,,,,
2005/9/1,9:45,0,5,36,46.002 ,137,13.272 ,0.03 ,61.61 ,334.20 ,0.21 ,0.40 
2005/9/1,9:50,0,5,36,46.020 ,137,13.260 ,0.02 ,37.78 ,331.76 ,0.13 ,0.24 
2005/9/1,10:00,0,10,36,46.068 ,137,13.218 ,0.06 ,108.57 ,324.82 ,0.18 ,0.35 
2005/9/1,10:05,0,5,36,46.092 ,137,13.188 ,0.03 ,62.95 ,314.81 ,0.21 ,0.41 
2005/9/1,10:10,0,5,36,46.092 ,137,13.164 ,0.02 ,35.71 ,269.97 ,0.12 ,0.23 
2005/9/1,10:15,0,5,36,46.122 ,137,13.140 ,0.04 ,65.99 ,327.20 ,0.22 ,0.43 
2005/9/1,10:20,0,5,36,46.122 ,137,13.110 ,0.02 ,44.64 ,269.97 ,0.15 ,0.29 
2005/9/1,10:25,0,5,36,46.134 ,137,13.092 ,0.02 ,34.78 ,309.62 ,0.12 ,0.23 
2005/9/1,10:30,0,5,36,46.140 ,137,13.062 ,0.02 ,46.00 ,283.93 ,0.15 ,0.30 
2005/9/1,10:35,0,5,36,46.146 ,137,13.032 ,0.02 ,46.00 ,283.93 ,0.15 ,0.30 
2005/9/1,10:40,0,5,36,46.152 ,137,13.014 ,0.02 ,28.99 ,292.48 ,0.10 ,0.19 
2005/9/1,10:45,0,5,36,46.152 ,137,12.996 ,0.01 ,26.78 ,269.97 ,0.09 ,0.17 
2005/9/1,10:50,0,5,36,46.164 ,137,12.954 ,0.04 ,66.32 ,289.52 ,0.22 ,0.43 
2005/9/1,10:55,0,5,36,46.170 ,137,12.936 ,0.02 ,28.99 ,292.48 ,0.10 ,0.19 
2005/9/1,11:00,0,5,36,46.182 ,137,12.906 ,0.03 ,49.85 ,296.41 ,0.17 ,0.32 
2005/9/1,11:05,0,5,36,46.170 ,137,12.870 ,0.03 ,57.98 ,247.47 ,0.19 ,0.38 
2005/9/1,11:10,0,5,36,46.176 ,137,12.858 ,0.01 ,21.02 ,301.83 ,0.07 ,0.14 
2005/9/1,11:15,0,5,36,46.188 ,137,12.822 ,0.03 ,57.98 ,292.48 ,0.19 ,0.38 
2005/9/1,11:30,0,15,36,46.176 ,137,12.762 ,0.05 ,92.00 ,256.01 ,0.10 ,0.20 


�A,Time,Time int.,,Lat.,,Long.,,Distance,,Direction,Speed,
Date(yyyy/mm/dd),(hh:mm),(hour),(min),(deg),(min),(deg),(min),(miles),(meter),(deg),(m/s),(knots)
2005/9/1,11:45,0,,36,45.966 ,137,13.494 ,,,,,
2005/9/1,11:50,0,5,36,46.026 ,137,13.482 ,0.06 ,112.40 ,350.82 ,0.37 ,0.73 
2005/9/1,11:55,0,5,36,46.068 ,137,13.470 ,0.04 ,79.71 ,347.02 ,0.27 ,0.52 
2005/9/1,12:00,0,5,36,46.116 ,137,13.446 ,0.05 ,95.69 ,338.05 ,0.32 ,0.62 
2005/9/1,12:05,0,5,36,46.164 ,137,13.434 ,0.05 ,90.56 ,348.59 ,0.30 ,0.59 
2005/9/1,12:10,0,5,36,46.206 ,137,13.410 ,0.05 ,85.50 ,335.28 ,0.28 ,0.55 
2005/9/1,12:15,0,5,36,46.242 ,137,13.386 ,0.04 ,75.56 ,331.76 ,0.25 ,0.49 
2005/9/1,12:20,0,5,36,46.272 ,137,13.350 ,0.04 ,77.12 ,315.97 ,0.26 ,0.50 
2005/9/1,12:25,0,5,36,46.290 ,137,13.338 ,0.02 ,37.78 ,331.76 ,0.13 ,0.24 
2005/9/1,12:30,0,5,36,46.326 ,137,13.320 ,0.04 ,71.77 ,338.05 ,0.24 ,0.47 
2005/9/1,12:35,0,5,36,46.362 ,137,13.296 ,0.04 ,75.56 ,331.76 ,0.25 ,0.49 
2005/9/1,12:40,0,5,36,46.392 ,137,13.284 ,0.03 ,58.29 ,342.13 ,0.19 ,0.38 
2005/9/1,12:45,0,5,36,46.422 ,137,13.260 ,0.04 ,65.98 ,327.20 ,0.22 ,0.43 
2005/9/1,12:50,0,5,36,46.440 ,137,13.230 ,0.03 ,55.69 ,306.68 ,0.19 ,0.36 
2005/9/1,12:55,0,5,36,46.476 ,137,13.212 ,0.04 ,71.77 ,338.06 ,0.24 ,0.47 
2005/9/1,13:00,0,5,36,46.482 ,137,13.188 ,0.02 ,37.39 ,287.23 ,0.12 ,0.24 
2005/9/1,13:05,0,5,36,46.518 ,137,13.158 ,0.04 ,80.16 ,326.13 ,0.27 ,0.52 
2005/9/1,13:10,0,5,36,46.536 ,137,13.128 ,0.03 ,55.68 ,306.69 ,0.19 ,0.36 
2005/9/1,13:15,0,5,36,46.566 ,137,13.098 ,0.04 ,71.21 ,321.15 ,0.24 ,0.46 
2005/9/1,13:20,0,5,36,46.596 ,137,13.062 ,0.04 ,77.12 ,315.98 ,0.26 ,0.50 
2005/9/1,13:30,0,10,36,46.632 ,137,13.020 ,0.05 ,91.31 ,316.79 ,0.15 ,0.30 
2005/9/1,13:35,0,5,36,46.656 ,137,12.984 ,0.04 ,69.57 ,309.62 ,0.23 ,0.45 
2005/9/1,13:40,0,5,36,46.674 ,137,12.960 ,0.03 ,48.82 ,312.96 ,0.16 ,0.32 
2005/9/1,13:45,0,5,36,46.698 ,137,12.930 ,0.03 ,62.95 ,314.81 ,0.21 ,0.41 
2005/9/1,13:50,0,5,36,46.698 ,137,12.912 ,0.01 ,26.78 ,269.97 ,0.09 ,0.17 


�B,Time,Time int.,,Lat.,,Long.,,Distance,,Direction,Speed,
Date(yyyy/mm/dd),(hh:mm),(hour),(min),(deg),(min),(deg),(min),(miles),(meter),(deg),(m/s),(knots)
2005/9/1,9:40,0,,36,45.972 ,137,13.518 ,,,,,
2005/9/1,9:45,0,5,36,46.020 ,137,13.548 ,0.05 ,99.37 ,26.66 ,0.33 ,0.64 
2005/9/1,9:50,0,5,36,46.014 ,137,13.536 ,0.01 ,21.02 ,238.10 ,0.07 ,0.14 
2005/9/1,9:55,0,5,36,46.026 ,137,13.566 ,0.03 ,49.85 ,63.53 ,0.17 ,0.32 
2005/9/1,10:00,0,5,36,46.056 ,137,13.560 ,0.03 ,56.20 ,350.82 ,0.19 ,0.36 
2005/9/1,10:10,0,10,36,46.062 ,137,13.572 ,0.01 ,21.02 ,58.10 ,0.04 ,0.07 
2005/9/1,10:15,0,5,36,46.074 ,137,13.572 ,0.01 ,22.19 ,359.96 ,0.07 ,0.14 
2005/9/1,10:20,0,5,36,46.080 ,137,13.572 ,0.01 ,11.10 ,359.96 ,0.04 ,0.07 
2005/9/1,10:25,0,5,36,46.092 ,137,13.578 ,0.01 ,23.92 ,21.88 ,0.08 ,0.16 
2005/9/1,10:30,0,5,36,46.098 ,137,13.572 ,0.01 ,14.24 ,321.15 ,0.05 ,0.09 
2005/9/1,10:40,0,10,36,46.122 ,137,13.566 ,0.02 ,45.28 ,348.59 ,0.08 ,0.15 
2005/9/1,10:45,0,5,36,46.116 ,137,13.578 ,0.01 ,21.02 ,121.82 ,0.07 ,0.14 
2005/9/1,10:50,0,5,36,46.158 ,137,13.560 ,0.04 ,82.17 ,340.94 ,0.27 ,0.53 
2005/9/1,10:55,0,5,36,46.158 ,137,13.554 ,0.00 ,8.93 ,269.96 ,0.03 ,0.06 
2005/9/1,11:00,0,5,36,46.188 ,137,13.572 ,0.03 ,61.61 ,25.73 ,0.21 ,0.40 
2005/9/1,11:05,0,5,36,46.224 ,137,13.548 ,0.04 ,75.56 ,331.76 ,0.25 ,0.49 
2005/9/1,11:10,0,5,36,46.230 ,137,13.554 ,0.01 ,14.24 ,38.78 ,0.05 ,0.09 
2005/9/1,11:15,0,5,36,46.236 ,137,13.578 ,0.02 ,37.40 ,72.70 ,0.12 ,0.24 
2005/9/1,11:20,0,5,36,46.266 ,137,13.566 ,0.03 ,58.29 ,342.13 ,0.19 ,0.38 
2005/9/1,11:25,0,5,36,46.290 ,137,13.566 ,0.02 ,44.39 ,359.96 ,0.15 ,0.29 
2005/9/1,11:30,0,5,36,46.338 ,137,13.542 ,0.05 ,95.69 ,338.05 ,0.32 ,0.62 
2005/9/1,11:35,0,5,36,46.362 ,137,13.548 ,0.02 ,45.28 ,11.34 ,0.15 ,0.29 


�C,Time,Time int.,,Lat.,,Long.,,Distance,,Direction,Speed,
Date(yyyy/mm/dd),(hh:mm),(hour),(min),(deg),(min),(deg),(min),(miles),(meter),(deg),(m/s),(knots)
2005/9/1,11:50,0,,36,45.948 ,137,13.182 ,,,,,
2005/9/1,11:55,0,5,36,45.978 ,137,13.152 ,0.04 ,71.22 ,321.15 ,0.24 ,0.46 
2005/9/1,12:00,0,5,36,45.990 ,137,13.140 ,0.02 ,28.49 ,321.15 ,0.09 ,0.18 
2005/9/1,12:15,0,15,36,46.086 ,137,13.038 ,0.13 ,233.59 ,319.44 ,0.26 ,0.50 
2005/9/1,12:20,0,5,36,46.104 ,137,13.002 ,0.03 ,63.07 ,301.83 ,0.21 ,0.41 
2005/9/1,12:25,0,5,36,46.098 ,137,12.996 ,0.01 ,14.24 ,218.79 ,0.05 ,0.09 
2005/9/1,12:30,0,5,36,46.122 ,137,12.960 ,0.04 ,69.57 ,309.62 ,0.23 ,0.45 
2005/9/1,12:35,0,5,36,46.122 ,137,12.942 ,0.01 ,26.78 ,269.97 ,0.09 ,0.17 
2005/9/1,12:40,0,5,36,46.146 ,137,12.912 ,0.03 ,62.95 ,314.81 ,0.21 ,0.41 
2005/9/1,12:45,0,5,36,46.146 ,137,12.882 ,0.02 ,44.64 ,269.97 ,0.15 ,0.29 
2005/9/1,12:50,0,5,36,46.134 ,137,12.864 ,0.02 ,34.78 ,230.32 ,0.12 ,0.23 
2005/9/1,12:55,0,5,36,46.146 ,137,12.834 ,0.03 ,49.85 ,296.41 ,0.17 ,0.32 
2005/9/1,13:05,0,5,36,46.152 ,137,12.786 ,0.04 ,72.28 ,278.80 ,0.24 ,0.47 
2005/9/1,13:10,0,5,36,46.146 ,137,12.762 ,0.02 ,37.40 ,252.71 ,0.12 ,0.24 
2005/9/1,13:15,0,5,36,46.140 ,137,12.738 ,0.02 ,37.40 ,252.71 ,0.12 ,0.24 
2005/9/1,13:20,0,5,36,46.134 ,137,12.714 ,0.02 ,37.40 ,252.71 ,0.12 ,0.24 
2005/9/1,13:25,0,5,36,46.122 ,137,12.690 ,0.02 ,42.05 ,238.11 ,0.14 ,0.27 
2005/9/1,13:30,0,5,36,46.122 ,137,12.666 ,0.02 ,35.71 ,269.97 ,0.12 ,0.23 
2005/9/1,13:40,0,10,36,46.044 ,137,12.570 ,0.11 ,203.02 ,224.69 ,0.34 ,0.66 
